CW5629 Weather Reports


Display with metric or nautical units.
time (UTC)temp
F
wind
direction
speed
MPH
gust
MPH
rain 1hr
in
rain 24hr
in
rain mn
in
humidity
%
barometer
mb
20260509205130 59 108 0.0 2.0 0.00 0.00 0.00 65 1015.1
20260509204135 60 143 0.0 1.0 0.00 0.00 0.00 65 1015.1
20260509203147 60 97 0.0 3.0 0.00 0.00 0.00 64 1014.9
20260509202118 60 153 0.0 1.0 0.00 0.00 0.00 63 1014.9
20260509201126 61 91 0.0 2.0 0.00 0.00 0.00 62 1014.9
20260509200139 61 150 0.0 4.0 0.00 0.00 0.00 61 1014.9
20260509195130 62 100 1.0 3.0 0.00 0.00 0.00 60 1014.9
20260509194122 62 34 0.0 3.0 0.00 0.00 0.00 60 1014.9
20260509193128 63 80 1.0 4.0 0.00 0.00 0.00 59 1014.8
20260509192141 64 101 1.0 3.0 0.00 0.00 0.00 59 1014.8
20260509191114 64 23 0.0 4.0 0.00 0.00 0.00 58 1014.7
20260509190120 65 78 0.0 3.0 0.00 0.00 0.00 58 1014.7
20260509185130 65 133 1.0 3.0 0.00 0.00 0.00 57 1014.6
20260509184125 66 127 0.0 3.0 0.00 0.00 0.00 57 1014.5
20260509183157 67 108 0.0 3.0 0.00 0.00 0.00 55 1014.5
20260509182123 69 134 0.0 3.0 0.00 0.00 0.00 52 1014.4
20260509181136 70 271 0.0 3.0 0.00 0.00 0.00 50 1014.4
20260509180121 71 101 0.0 2.0 0.00 0.00 0.00 48 1014.4
20260509175115 72 131 0.0 1.0 0.00 0.00 0.00 48 1014.3
20260509174128 71 110 0.0 1.0 0.00 0.00 0.00 51 1014.3
20260509173114 71 110 0.0 0.0 0.00 0.00 0.00 52 1014.3
20260509172128 70 110 0.0 0.0 0.00 0.00 0.00 52 1014.3
20260509171143 70 110 0.0 1.0 0.00 0.00 0.00 52 1014.3
20260509170128 71 98 0.0 1.0 0.00 0.00 0.00 49 1014.4
20260509165121 72 134 0.0 1.0 0.00 0.00 0.00 49 1014.5
20260509164154 73 126 0.0 1.0 0.00 0.00 0.00 48 1014.5
20260509163146 73 134 0.0 0.0 0.00 0.00 0.00 48 1014.6
20260509162129 73 134 0.0 1.0 0.00 0.00 0.00 48 1014.5
20260509161123 72 105 0.0 1.0 0.00 0.00 0.00 48 1014.6
20260509160113 73 115 0.0 0.0 0.00 0.00 0.00 49 1014.7
20260509155126 72 110 0.0 1.0 0.00 0.00 0.00 49 1014.7
20260509154118 70 116 0.0 1.0 0.00 0.00 0.00 52 1014.8
20260509153120 68 133 0.0 1.0 0.00 0.00 0.00 54 1014.8
20260509152114 67 106 0.0 2.0 0.00 0.00 0.00 56 1014.8
20260509151119 67 118 0.0 1.0 0.00 0.00 0.00 56 1014.9
20260509150200 68 126 0.0 2.0 0.00 0.00 0.00 56 1014.9
20260509145124 69 121 0.0 1.0 0.00 0.00 0.00 50 1014.9
20260509144137 70 87 0.0 4.0 0.00 0.00 0.00 49 1015.0
20260509143129 70 46 0.0 2.0 0.00 0.00 0.00 53 1015.0
20260509142114 70 106 0.0 2.0 0.00 0.00 0.00 53 1015.0
20260509141127 71 341 0.0 2.0 0.00 0.00 0.00 49 1014.9
20260509140139 72 103 0.0 2.0 0.00 0.00 0.00 51 1015.1
20260509135123 72 101 0.0 4.0 0.00 0.00 0.00 51 1015.1
20260509134117 73 272 0.0 3.0 0.00 0.00 0.00 50 1015.2
20260509133131 74 95 0.0 3.0 0.00 0.00 0.00 49 1015.0
20260509132117 74 116 0.0 3.0 0.00 0.00 0.00 50 1015.1
20260509131131 73 106 0.0 4.0 0.00 0.00 0.00 52 1015.2
20260509130118 73 98 0.0 4.0 0.00 0.00 0.00 48 1015.3
20260509125151 74 291 0.0 3.0 0.00 0.00 0.00 49 1015.3
20260509124142 73 105 0.0 3.0 0.00 0.00 0.00 50 1015.3
20260509123135 72 101 0.0 1.0 0.00 0.00 0.00 50 1015.5
20260509122121 70 104 0.0 2.0 0.00 0.00 0.00 54 1015.5
20260509121135 69 95 0.0 2.0 0.00 0.00 0.00 54 1015.6
20260509120121 69 115 0.0 1.0 0.00 0.00 0.00 51 1015.5
20260509115115 70 110 0.0 1.0 0.00 0.00 0.00 53 1015.7
20260509114118 70 133 0.0 3.0 0.00 0.00 0.00 51 1015.7
20260509113130 70 132 0.0 1.0 0.00 0.00 0.00 52 1015.8
20260509112144 70 108 0.0 2.0 0.00 0.00 0.00 51 1015.9
20260509111137 70 98 0.0 2.0 0.00 0.00 0.00 54 1016.0
20260509110124 70 135 0.0 1.0 0.00 0.00 0.00 59 1016.1
20260509105111 69 107 0.0 2.0 0.00 0.00 0.00 59 1016.1
20260509104124 68 118 0.0 2.0 0.00 0.00 0.00 62 1016.2
20260509103116 68 317 0.0 0.0 0.00 0.00 0.00 60 1016.2
20260509102146 68 316 0.0 1.0 0.00 0.00 0.00 59 1016.3
20260509101110 67 316 0.0 2.0 0.00 0.00 0.00 64 1016.2
20260509100143 66 126 0.0 2.0 0.00 0.00 0.00 64 1016.2
20260509095135 65 86 0.0 1.0 0.00 0.00 0.00 66 1016.3
20260509094121 64 88 0.0 1.0 0.00 0.00 0.00 66 1016.4
20260509093114 64 131 0.0 0.0 0.00 0.00 0.00 66 1016.4
20260509092148 63 115 0.0 1.0 0.00 0.00 0.00 66 1016.4
20260509091113 63 138 0.0 1.0 0.00 0.00 0.00 67 1016.3
20260509090126 62 91 0.0 1.0 0.00 0.00 0.00 70 1016.3
20260509085112 61 82 0.0 2.0 0.00 0.00 0.00 70 1016.4
20260509084147 61 136 0.0 1.0 0.00 0.00 0.00 69 1016.4
20260509083139 61 123 0.0 2.0 0.00 0.00 0.00 70 1016.5
20260509082112 59 95 0.0 1.0 0.00 0.00 0.00 73 1016.6
20260509081143 58 102 0.0 1.0 0.00 0.00 0.00 76 1016.6
20260509080128 56 112 0.0 0.0 0.00 0.00 0.00 79 1016.6
20260509075120 55 98 0.0 2.0 0.00 0.00 0.00 81 1016.6
20260509074133 54 115 0.0 0.0 0.00 0.00 0.00 83 1016.5
20260509073117 53 103 0.0 0.0 0.00 0.00 0.00 85 1016.5
20260509072130 52 103 0.0 1.0 0.00 0.00 0.00 87 1016.6
20260509071119 52 107 0.0 0.0 0.00 0.00 0.00 89 1016.5
20260509070132 51 107 0.0 0.0 0.00 0.00 0.00 91 1016.5
20260509065119 51 107 0.0 1.0 0.00 0.00 0.00 92 1016.4
20260509064111 51 107 0.0 0.0 0.00 0.00 0.00 93 1016.4
20260509063123 50 107 0.0 0.0 0.00 0.00 0.00 94 1016.4
20260509062128 49 107 0.0 0.0 0.00 0.00 0.00 94 1016.4
20260509061121 49 107 0.0 0.0 0.00 0.00 0.00 94 1016.3
20260509060133 48 107 0.0 0.0 0.00 0.00 0.00 94 1016.2
20260509055116 48 107 0.0 0.0 0.00 0.00 0.00 94 1016.1
20260509054150 47 107 0.0 0.0 0.00 0.00 0.00 94 1016.1
20260509053115 46 107 0.0 0.0 0.00 0.00 0.00 94 1016.0
20260509052128 46 107 0.0 0.0 0.00 0.00 0.00 94 1015.9
20260509051141 46 107 0.0 0.0 0.00 0.00 0.00 94 1015.8
20260509050134 45 107 0.0 0.0 0.00 0.00 0.00 94 1015.8
20260509045141 45 107 0.0 0.0 0.00 0.00 0.00 94 1015.6
20260509044130 45 107 0.0 0.0 0.00 0.00 0.00 93 1015.8
20260509043122 45 107 0.0 0.0 0.00 0.00 0.00 93 1015.7
20260509042134 45 107 0.0 0.0 0.00 0.00 0.00 93 1015.6
20260509041119 45 107 0.0 0.0 0.00 0.00 0.00 93 1015.7
20260509040113 45 107 0.0 0.0 0.00 0.00 0.00 93 1015.6
20260509035146 45 107 0.0 0.0 0.00 0.00 0.00 93 1015.6
20260509034111 44 107 0.0 0.0 0.00 0.00 0.00 93 1015.8
20260509033145 44 107 0.0 0.0 0.00 0.00 0.00 92 1015.9
20260509032117 45 107 0.0 0.0 0.00 0.00 0.00 92 1015.9
20260509031129 45 107 0.0 0.0 0.00 0.00 0.00 93 1016.0
20260509030113 44 107 0.0 0.0 0.00 0.00 0.00 92 1016.0
20260509025126 44 107 0.0 0.0 0.00 0.00 0.00 92 1015.9
20260509024111 45 107 0.0 0.0 0.00 0.00 0.00 91 1015.9
20260509023125 45 107 0.0 0.0 0.00 0.00 0.00 91 1016.0
20260509022111 45 107 0.0 0.0 0.00 0.00 0.00 91 1016.0
20260509021125 45 107 0.0 0.0 0.00 0.00 0.00 91 1016.0
20260509020137 45 107 0.0 0.0 0.00 0.00 0.00 91 1016.1
20260509015124 45 107 0.0 0.0 0.00 0.00 0.00 91 1015.9
20260509014137 45 107 0.0 0.0 0.00 0.00 0.00 91 1016.0
20260509013128 45 107 0.0 0.0 0.00 0.00 0.00 90 1016.1
20260509012113 45 107 0.0 0.0 0.00 0.00 0.00 90 1016.1
20260509011127 45 107 0.0 0.0 0.00 0.00 0.00 90 1016.2
20260509010112 46 107 0.0 0.0 0.00 0.00 0.00 90 1016.1
20260509005126 46 107 0.0 0.0 0.00 0.00 0.00 90 1016.1
20260509004119 46 107 0.0 0.0 0.00 0.00 0.00 90 1016.1
20260509003152 46 107 0.0 0.0 0.00 0.00 0.00 88 1016.1
20260509002116 46 107 0.0 0.0 0.00 0.00 0.00 88 1016.0
20260509001128 47 107 0.0 0.0 0.00 0.00 0.00 88 1016.1
20260509000114 47 107 0.0 0.0 0.00 0.00 0.00 88 1016.1
20260508235127 48 107 0.0 0.0 0.00 0.00 0.00 88 1016.2
20260508234113 48 107 0.0 0.0 0.00 0.00 0.00 87 1016.2
20260508233127 48 107 0.0 0.0 0.00 0.00 0.00 87 1016.2
20260508232116 48 107 0.0 0.0 0.00 0.00 0.00 87 1016.3
20260508231130 49 107 0.0 0.0 0.00 0.00 0.00 86 1016.3
20260508230122 49 107 0.0 0.0 0.00 0.00 0.00 86 1016.2
20260508225129 49 107 0.0 0.0 0.00 0.00 0.00 85 1016.2
20260508224122 49 107 0.0 0.0 0.00 0.00 0.00 85 1016.2
20260508223136 50 107 0.0 0.0 0.00 0.00 0.00 84 1016.1
20260508222121 50 107 0.0 0.0 0.00 0.00 0.00 84 1016.2
20260508221133 50 107 0.0 0.0 0.00 0.00 0.00 83 1016.3
20260508220139 51 107 0.0 0.0 0.00 0.00 0.00 83 1016.2
20260508215130 51 107 0.0 0.0 0.00 0.00 0.00 83 1016.3
20260508214142 51 107 0.0 0.0 0.00 0.00 0.00 83 1016.3
20260508213134 51 107 0.0 0.0 0.00 0.00 0.00 83 1016.2
20260508212121 51 107 0.0 0.0 0.00 0.00 0.00 83 1016.2
20260508211135 51 107 0.0 0.0 0.00 0.00 0.00 83 1016.2
20260508210120 51 107 0.0 0.0 0.00 0.00 0.00 81 1016.2